Regional Weather Roundup
Issued by NWS

Home | Current Version | Previous Version | Text Only | Print | Product List | Glossary Off
Versions: 1 2 3 4 5 6 7 8 9 10 11 12 13 14 15 16 17 18 19 20 21 22 23 24 25 26 27 28 29 30 31 32 33 34 35 36 37 38 39 40 41 42 43 44 45 46 47 48 49 50

000
ASUS45 KTFX 241619
RWRMT
MONTANA HOURLY WEATHER ROUNDUP
NATIONAL WEATHER SERVICE GREAT FALLS MT
1019 AM MDT THU JUL 24 2014

NOTE: "FAIR" INDICATES FEW OR NO CLOUDS BELOW 12000 FEET WITH NO
SIGNIFICANT WEATHER AND/OR OBSTRUCTIONS TO VISIBILITY.

* THESE STATIONS ARE NOT UNDER NWS QUALITY CONTROL. THEY DO NOT
   REPORT WEATHER SUCH AS PRECIPITATION OR FOG.

MTZ001>007-043-241700-
WEST OF THE DIVIDE
CITY           SKY/WX    TMP DP  RH WIND       PRES   REMARKS
KALISPELL      PTSUNNY   59  37  44 SW10      30.04S
MISSOULA       LGT RAIN  54  46  74 NW12G25   30.12R
BUTTE          SUNNY     61  48  62 N3        30.06F
MULLAN PASS    CLOUDY    39  36  89 VRB7      30.16S WCI  34
* ESSEX        N/A       52  45  77 NW4G9      N/A
* LINCOLN      N/A       61  47  60 S7G14      N/A
* LOOKOUT PASS N/A       45  37  74 NE2G10     N/A
* POLSON       N/A       53  42  66 N3G9       N/A
* RONAN APT    PTSUNNY   52  48  86 N/A        N/A
* SEELEY LAKE  N/A       61  42  50 W5G11      N/A
* THOMP F APT  SUNNY     67  36  32 S7G13      N/A
$$

MTZ008-052>055-241700-
SOUTHWEST MONTANA
CITY           SKY/WX    TMP DP  RH WIND       PRES   REMARKS
BOZEMAN        SUNNY     70  48  46 SE3       29.96F
DILLON         SUNNY     72  43  35 SW5       30.00F
W YELLOWSTONE  SUNNY     68  36  31 SW23G28   30.15S
* THREE FORKS  SUNNY     73  73 100 NE10       N/A
* BOULDER HILL N/A       63  47  56 N6G12      N/A
* MONIDA PASS  N/A       66  36  33 SE17G26    N/A
* RAYNOLDS PAS N/A       67  48  51 SE16G28    N/A
* WHITEHALL    N/A       71  53  53 S5         N/A
* WISE RIVER   N/A       59  48  67 W3         N/A
$$

MTZ009>010-012-014-046-048-049-054-241700-
EAST SLOPES AND CENTRAL MONTANA
CITY           SKY/WX    TMP DP  RH WIND       PRES   REMARKS
CUT BANK       CLOUDY    63  43  48 W31G39    29.93S
GREAT FALLS    SUNNY     70  52  53 SW7       29.92F
HELENA         SUNNY     72  48  43 NW14      29.96S
MALMSTROM AFB  SUNNY     70  52  53 W10G15    29.93F
* CONRAD       PTCLDY    66  55  68 N/A        N/A
* DEARBORN     N/A       71  51  49 S6         N/A
* EAST GLACIER N/A       57  43  60 NW13G20    N/A
* MONARCH      N/A       64  44  48 NW5        N/A
* ROGERS PASS  N/A       57  45  64 SE13G21    N/A
* SAINT MARY   N/A       55  41  59 SW8G17     N/A
* SWEET GRASS  N/A       63  55  75 W8G13      N/A
* WHITE SULPH  N/A       67  54  63 W3G9       N/A
$$

MTZ011-013-016-021-035-040-045-047-050-051-241700-
NORTH CENTRAL MONTANA
CITY           SKY/WX    TMP DP  RH WIND       PRES   REMARKS
HAVRE          SUNNY     73  61  66 SW17      29.82F
LEWISTOWN      SUNNY     70  54  57 W7        29.90F
* FORT BENTON  SUNNY     75  57  54 S6        29.86F
* CHESTER      N/A       72  50  46 NW12G19    N/A
* DENTON       N/A       74  52  46 W6G12      N/A
* JUDITH GAP   N/A       68  53  59 VRB17G22    N/A
* LOMA         N/A       69  61  76 SW5        N/A
$$

MTZ017>020-022>027-061-062-241700-
NORTHEAST MONTANA
CITY           SKY/WX    TMP DP  RH WIND       PRES   REMARKS
GLASGOW        SUNNY     79  57  47 SE18      29.77F
GLENDIVE       PTCLDY    77  61  58 E14       29.80F
JORDAN         PTCLDY    79  57  47 E9        29.76F
SIDNEY         PTCLDY    75  63  66 SE13G22   29.81F
WOLF POINT     PTCLDY    79  59  50 SE13G18   29.77F
* BEAVER HILL  N/A       70  60  71 E31G38     N/A
* CIRCLE       N/A       73  62  69 E7         N/A
* LINDSAY DVD  N/A       73  59  62 E18G26     N/A
* NAVAJO       N/A       72  61  68 SE13G19    N/A
$$

MTZ028>042-056>058-241700-
SOUTHCENTRAL AND SOUTHEAST MONTANA
CITY           SKY/WX    TMP DP  RH WIND       PRES   REMARKS
BAKER          SUNNY     75  61  62 SE22      29.82F
BILLINGS       SUNNY     77  59  54 VRB3      29.85F
LIVINGSTON     SUNNY     81  48  32 NW15      29.92S
MILES CITY     SUNNY     79  59  50 S5        29.79R
* LAUREL APT   SUNNY     77  59  54 N/A        N/A
* ROUNDUP APT  PTCLDY    73  59  62 N/A        N/A
* ALZADA       N/A       89  57  34 SW8        N/A
* HYSHAM       N/A       77  58  52 E7         N/A
* LAME DEER    N/A       79  58  49 NW4G14     N/A
* REED POINT   N/A       82  55  40 E4G9       N/A   HI  81
* ROSCOE HILL  N/A       84  34  17 S11G19     N/A
$$

REGIONAL REPORTS...DAKOTAS
CITY           SKY/WX    TMP DP  RH WIND       PRES   REMARKS
WILLISTON      SUNNY     75  61  62 SE13G22   29.84F
DICKINSON      CLOUDY    66  61  84 E18       29.85S
CROSBY         N/A       72  68  87 S14G24    29.83R
TIOGA          SUNNY     73  68  84 SE16G21   29.87F
WATFORD CITY   SUNNY     73  63  71 SE17G23   29.82F
BISMARCK       PTSUNNY   70  61  73 E28G38    29.89F
GRAND FORKS    CLOUDY    72  61  68 SW3       30.06R
FARGO          CLOUDY    75  57  54 SE14      30.02F
BUFFALO SD     PTCLDY    73  63  71 E17       29.79S
RAPID CITY     PTCLDY    82  68  63 S9        29.82F HI  85
$$

REGIONAL REPORTS...WYOMING/IDAHO/WASHINGTON
CITY           SKY/WX    TMP DP  RH WIND       PRES   REMARKS
GILLETTE       SUNNY     91  48  23 SW16G21   29.88F
SHERIDAN       PTCLDY    88  55  33 N13       29.85S
YELLOWSTONE LA SUNNY     68  30  24 SW9G18    30.25S
SALMON         SUNNY     73  39  29 S6        29.99F
MULLAN PASS    CLOUDY    39  36  89 VRB7      30.16S WCI  34
SAND POINT     CLOUDY    55  45  69 S15G21    30.10F
SPOKANE        PTSUNNY   55  45  69 S21G26    30.12F
$$

REGIONAL REPORTS...ALBERTA
CITY           SKY/WX    TMP DP  RH WIND       PRES   REMARKS
CALGARY        SUNNY     66  37  34 SW22G32   29.73F
LETHBRIDGE     SUNNY     66  48  52 SW18      29.87S
MEDICINE HAT   PTSUNNY   72  54  53 SW13      29.82S
EDMONTON       SUNNY     68  57  68 SE8       29.63S
WATERTON GATE  N/A       59  37  44 W22G32     N/A
CARDSTON       N/A       63  45  52 SW15G25    N/A
MILK RIVER     N/A       70  43  38 W18        N/A
$$

REGIONAL REPORTS...SASKATCHEWAN
CITY           SKY/WX    TMP DP  RH WIND       PRES   REMARKS
SWIFT CURRENT  PTSUNNY   75  61  62 S8        29.80S
MOOSE JAW      PTCLDY    72  64  76 SE13      29.80S
REGINA         PTCLDY    70  63  79 S12G18    29.82R
VAL MARIE      N/A       72  57  59 SW5        N/A
ASSINIBOIA     N/A       75  63  66 SE6        N/A
CORONACH       N/A       73  61  66 SE9        N/A

$$



USA.gov is the U.S. government's official web portal to all federal, state and local government web resources and services.